STARLINK-36073 (66844 NORAD) Tracking and Keplerian Element Data

This shows tracking and keplerian element data for the satellite.

Feedback or suggestion? Click here.




ElementValue
Catalog66844
NameSTARLINK-36073
Epoch Orbit410
Epoch Day354.25003472
Epoch Year2025
RAAN177.7954
Inclination69.9996
Eccentricity0.0003077
Argument of Perigee266.832
Mean Anonmoly345.7957
Mean Motion15.52488149
Decay Rate0.00034097
L11 66844U 25280Z 25354.25003472 .00034097 00000+0 55520-3 0 9999
L22 66844 69.9996 177.7954 0003077 266.8320 345.7957 15.52488149 4104



Live tracking and technical data element details for STARLINK-36073 (NORAD 66844). STARLINK-36073 can be tracked NOW for your location showing map with azimuth and elevation plus other details from your city location.







IsCatalogInMostPopularTable: catalog: 66844, numindb: 11
Update: records affected: 1



GetName: 66844 STARLINK-36073

Hit Count: updated at: Tue, 10 Feb 2026 03:48:24 GMT